Le nostre stazioni meteo in Italia

Pubblicità
Il mio iltempo24.it
Trieste, Italia (16110): Temperatura & dewpoint: 17.07.2019 06:00:00 - 23.07.2019 06:00:00 (CEST)Trieste, Italia (16110): velocità del vento: 17.07.2019 06:00:00 - 23.07.2019 06:00:00 (CEST)Trieste, Italia (16110): direzione del vento: 17.07.2019 06:00:00 - 23.07.2019 06:00:00 (CEST)Trieste, Italia (16110): reduced air pressure: 17.07.2019 06:00:00 - 23.07.2019 06:00:00 (CEST)Trieste, Italia (16110): visibility: 17.07.2019 06:00:00 - 23.07.2019 06:00:00 (CEST)Trieste, Italia (16110): ore di luce: 17.07.2019 06:00:00 - 23.07.2019 06:00:00 (CEST)
Data & Tempo tt [°C] td [°C] ff [km/h] ff [kn] dd ppp [hPa] vv [km] sd [min]
23.07.2019 06:00:00 26,4 20,0 8 4 ONO 1019,2 20 -
23.07.2019 05:00:00 26,4 19,5 11 6 NE 1019,1 20 -
23.07.2019 04:00:00 27,0 19,9 5 3 O 1019,3 20 -
23.07.2019 03:00:00 26,8 19,9 5 3 ENE 1019,5 20 -
23.07.2019 02:00:00 25,8 19,9 4 2 ENE 1019,6 20 -
23.07.2019 01:00:00 26,0 19,2 4 2 NE 1019,8 20 -
23.07.2019 00:00:00 26,4 19,0 5 3 ENE 1019,8 20 -
22.07.2019 23:00:00 27,2 18,0 9 5 E 1019,6 20 -
22.07.2019 22:00:00 27,2 19,0 11 6 NE 1019,6 20 -
22.07.2019 21:00:00 27,4 22,1 5 3 ENE 1019,4 20 -
22.07.2019 20:00:00 29,0 23,7 4 2 S 1019,5 20 60
22.07.2019 19:00:00 29,4 25,0 5 3 ONO 1019,3 20 42
22.07.2019 18:00:00 30,0 24,4 13 7 OSO 1019,4 20 42
22.07.2019 17:00:00 30,4 25,5 11 6 OSO 1019,6 20 12
22.07.2019 16:00:00 31,4 26,4 11 6 SO 1019,8 20 12
22.07.2019 15:00:00 31,8 23,9 9 5 O 1020,1 20 18
22.07.2019 14:00:00 32,0 24,1 8 4 ONO 1020,3 20 36
22.07.2019 13:00:00 29,6 24,0 9 5 ENE 1020,1 20 60
22.07.2019 12:00:00 33,4 18,4 11 6 NNE 1020,5 20 60
22.07.2019 11:00:00 29,4 22,1 5 3 N 1020,5 20 60
22.07.2019 10:00:00 28,8 22,3 5 3 OSO 1020,7 20 60
22.07.2019 09:00:00 27,6 21,6 5 3 O 1020,9 20 60
22.07.2019 08:00:00 27,0 19,9 5 3 SSE 1020,3 20 48
22.07.2019 07:00:00 24,6 18,8 11 6 ESE 1020,4 20 -
22.07.2019 06:00:00 24,6 19,2 5 3 SO 1020,3 20 -
22.07.2019 05:00:00 24,6 19,4 9 5 ENE 1020,1 20 -
22.07.2019 04:00:00 25,4 19,3 8 4 ENE 1020,1 20 -
22.07.2019 03:00:00 26,0 19,6 21 11 ENE 1020,1 20 -
22.07.2019 02:00:00 26,2 19,4 18 10 NE 1020,0 20 -
22.07.2019 01:00:00 26,6 19,5 9 5 E 1020,0 20 -
22.07.2019 00:00:00 26,6 20,0 8 4 NE 1020,0 20 -
21.07.2019 23:00:00 27,2 20,5 8 4 ENE 1019,5 20 -
21.07.2019 22:00:00 26,8 20,4 5 3 NNE 1019,0 20 -
21.07.2019 21:00:00 27,0 20,3 8 4 NNE 1018,8 20 -
21.07.2019 20:00:00 28,6 20,9 4 2 S 1018,4 20 54
21.07.2019 19:00:00 29,0 22,5 8 4 S 1018,1 20 54
21.07.2019 18:00:00 28,0 23,2 5 3 O 1018,7 20 12
21.07.2019 17:00:00 28,0 24,2 8 4 ONO 1018,7 20 48
21.07.2019 16:00:00 28,0 24,7 8 4 ONO 1018,4 20 60
21.07.2019 15:00:00 28,2 23,8 8 4 ONO 1018,8 20 60
21.07.2019 14:00:00 28,4 22,4 8 4 O 1018,8 20 60
21.07.2019 13:00:00 28,0 21,5 8 4 ONO 1019,0 20 60
21.07.2019 12:00:00 27,2 21,5 8 4 ONO 1019,0 20 60
21.07.2019 11:00:00 26,8 20,4 8 4 ONO 1018,6 20 60
21.07.2019 10:00:00 27,0 19,9 8 4 O 1018,5 20 60
21.07.2019 09:00:00 26,2 20,3 9 5 O 1018,6 20 60
21.07.2019 08:00:00 25,0 18,9 4 2 E 1018,5 20 36
21.07.2019 07:00:00 23,0 17,2 9 5 NE 1018,2 20 -
21.07.2019 06:00:00 23,2 17,2 9 5 NNE 1018,2 20 -
21.07.2019 05:00:00 24,0 18,2 5 3 NE 1017,0 20 -
21.07.2019 04:00:00 23,4 17,4 5 3 NE 1018,2 20 -
21.07.2019 03:00:00 23,6 17,4 9 5 NE 1018,6 20 -
21.07.2019 02:00:00 24,0 17,3 4 2 ENE 1018,8 20 -
21.07.2019 01:00:00 24,0 16,3 9 5 NNE 1018,6 20 -
21.07.2019 00:00:00 24,2 17,2 9 5 NNE 1018,3 20 -
20.07.2019 23:00:00 24,2 18,2 8 4 NE 1017,6 20 -
20.07.2019 22:00:00 24,8 17,8 11 6 NE 1017,8 20 -
20.07.2019 21:00:00 25,6 15,0 11 6 NE 1017,4 20 -
20.07.2019 20:00:00 27,6 15,6 5 3 SO 1017,1 20 60
20.07.2019 19:00:00 27,6 17,5 8 4 NO 1017,2 20 60
20.07.2019 18:00:00 27,4 19,7 9 5 ONO 1017,5 20 60
20.07.2019 17:00:00 28,0 19,5 8 4 ONO 1017,8 20 60
20.07.2019 16:00:00 28,0 19,5 8 4 O 1018,1 20 60
20.07.2019 15:00:00 28,0 19,5 11 6 O 1018,2 20 60
20.07.2019 14:00:00 27,0 17,8 13 7 ONO 1018,2 20 60
20.07.2019 13:00:00 27,2 17,4 9 5 ONO 1017,9 20 60
20.07.2019 12:00:00 27,6 19,7 11 6 O 1017,8 20 60
20.07.2019 11:00:00 26,4 20,5 8 4 O 1017,7 20 60
20.07.2019 10:00:00 24,8 19,9 8 4 ONO 1017,5 20 60
20.07.2019 09:00:00 24,6 19,0 8 4 ONO 1017,4 20 60
20.07.2019 08:00:00 23,6 17,4 5 3 NE 1017,1 20 60
20.07.2019 07:00:00 21,4 17,0 8 4 NE 1016,9 20 -
20.07.2019 06:00:00 20,6 16,6 13 7 NE 1016,9 20 -
20.07.2019 05:00:00 20,6 16,6 5 3 NE 1016,9 20 -
20.07.2019 04:00:00 21,4 16,1 11 6 NE 1016,5 20 -
20.07.2019 03:00:00 21,4 15,9 11 6 NE 1016,5 20 -
20.07.2019 02:00:00 22,2 16,0 15 8 NE 1016,6 20 -
20.07.2019 01:00:00 22,4 16,4 16 9 NE 1016,3 20 -
20.07.2019 00:00:00 22,8 16,8 16 9 NE 1016,1 20 -
19.07.2019 23:00:00 23,0 16,1 5 3 SE 1015,9 20 -
19.07.2019 22:00:00 23,4 16,0 5 3 NE 1015,4 20 -
19.07.2019 21:00:00 25,0 18,7 11 6 NNE 1015,4 20 -
19.07.2019 20:00:00 27,0 20,1 8 4 O 1015,1 20 54
19.07.2019 19:00:00 27,2 20,0 9 5 OSO 1015,2 20 60
19.07.2019 18:00:00 27,2 20,8 8 4 O 1015,2 20 60
19.07.2019 17:00:00 29,0 21,0 9 5 OSO 1015,2 20 60
19.07.2019 16:00:00 29,0 20,5 9 5 O 1015,0 20 60
19.07.2019 15:00:00 28,0 20,8 9 5 O 1015,3 20 60
19.07.2019 14:00:00 27,0 20,3 8 4 O 1015,2 20 60
19.07.2019 13:00:00 26,8 18,9 8 4 O 1015,3 20 60
19.07.2019 12:00:00 27,0 19,9 9 5 O 1015,4 20 60
19.07.2019 11:00:00 27,0 19,4 13 7 O 1015,3 20 60
19.07.2019 10:00:00 24,4 19,5 11 6 ONO 1015,0 20 60
19.07.2019 09:00:00 24,0 19,1 74 40 NNE 1014,8 0,5 60
19.07.2019 08:00:00 23,2 17,4 8 4 ENE 1013,7 20 60
19.07.2019 07:00:00 21,4 14,8 11 6 NE 1014,5 20 -
19.07.2019 06:00:00 21,6 14,5 9 5 NE 1014,3 20 -
19.07.2019 05:00:00 22,4 16,2 15 8 S 1014,2 20 -
19.07.2019 04:00:00 22,0 15,8 15 8 O 1014,3 20 -
19.07.2019 03:00:00 - - - - - - - -
19.07.2019 02:00:00 22,0 14,1 5 3 NNE 1014,0 20 -
19.07.2019 01:00:00 22,0 14,9 8 4 NNE 1013,8 20 -
19.07.2019 00:00:00 23,0 16,1 8 4 NE 1013,5 20 -
18.07.2019 23:00:00 23,2 16,0 4 2 NNE 1013,4 20 -
18.07.2019 22:00:00 24,0 18,2 5 3 NE 1013,1 20 -
18.07.2019 21:00:00 25,0 18,4 5 3 NE 1012,3 20 -
18.07.2019 20:00:00 26,0 16,3 2 1 N 1012,3 20 0
18.07.2019 19:00:00 26,4 18,5 5 3 OSO 1012,3 20 0
18.07.2019 18:00:00 26,4 18,3 5 3 ONO 1012,3 20 30
18.07.2019 17:00:00 27,0 18,6 4 2 NO 1012,3 20 48
18.07.2019 16:00:00 28,4 18,8 11 6 O 1012,3 20 60
18.07.2019 15:00:00 27,4 20,7 5 3 NO 1012,4 20 60
18.07.2019 14:00:00 27,0 19,9 8 4 OSO 1011,9 20 60
18.07.2019 13:00:00 26,4 20,2 8 4 ONO 1011,6 20 60
18.07.2019 12:00:00 26,4 19,8 5 3 O 1011,4 20 60
18.07.2019 11:00:00 25,4 19,1 8 4 O 1011,5 20 60
18.07.2019 10:00:00 25,4 18,8 8 4 O 1011,2 20 60
18.07.2019 09:00:00 23,8 18,2 11 6 ONO 1010,9 20 18
18.07.2019 08:00:00 22,0 17,8 5 3 ENE 1010,8 20 0
18.07.2019 07:00:00 21,2 15,7 18 10 ENE 1010,7 20 0
18.07.2019 06:00:00 19,6 16,8 28 15 NE 1010,9 10 -
18.07.2019 05:00:00 20,0 18,0 21 11 NNE 1011,5 10 -
18.07.2019 04:00:00 23,2 14,8 21 11 NNE 1011,5 20 -
18.07.2019 03:00:00 24,4 18,1 11 6 O 1011,1 20 -
18.07.2019 02:00:00 24,2 13,7 13 7 E 1011,0 20 -
18.07.2019 01:00:00 24,2 14,0 15 8 NE 1011,2 20 -
18.07.2019 00:00:00 24,4 14,8 16 9 ENE 1011,1 20 -
17.07.2019 23:00:00 24,0 14,7 15 8 NE 1011,0 20 -
17.07.2019 22:00:00 24,0 15,2 15 8 NE 1010,8 20 -
17.07.2019 21:00:00 24,8 15,7 9 5 NNE 1010,8 20 0
17.07.2019 20:00:00 27,0 16,3 5 3 NNO 1011,0 20 12
17.07.2019 19:00:00 27,0 15,1 9 5 ONO 1011,0 20 60
17.07.2019 18:00:00 26,8 19,7 5 3 NE 1011,4 20 60
17.07.2019 17:00:00 28,0 20,6 11 6 O 1011,9 20 60
17.07.2019 16:00:00 27,0 20,1 15 8 ONO 1012,3 20 60
17.07.2019 15:00:00 26,4 21,2 5 3 ONO 1012,5 20 60
17.07.2019 14:00:00 26,2 20,3 5 3 ONO 1012,6 20 60
17.07.2019 13:00:00 26,0 21,2 5 3 ONO 1012,8 20 60
17.07.2019 12:00:00 26,0 19,2 4 2 ONO 1012,8 20 60
17.07.2019 11:00:00 25,0 18,7 4 2 ONO 1012,8 20 60
17.07.2019 10:00:00 25,0 19,4 4 2 O 1013,1 20 60
17.07.2019 09:00:00 24,0 19,1 5 3 O 1013,2 20 60
17.07.2019 08:00:00 23,4 17,4 2 1 ONO 1013,2 20 60
17.07.2019 07:00:00 20,8 16,6 0 0 N 1013,3 20 -
17.07.2019 06:00:00 20,4 16,2 5 3 NE 1013,2 20 -

tt = Temperatura
td = dewpoint
ff = velocità del vento
dd = direzione del vento
ppp = reduced air pressure
vv = visibility
sd = ore di luce

Stazioni seguenti

WeatherPro
AMSI
MeteoEarth